User: anonymous   Login
Location: Unspecified
(0.0000°N, 0.0000°E)
Time: 03:14:14
(UTC+01:00)
Language:

Meteor PRIRODA - Orbit

View from above orbital plane
View from above orbital plane
View from above satellite
View from above satellite

Ground track
Ground track

The orbit data is extracted from the following two-line orbital elements,

1 12585U 81065A   17017.89436518  .00000664  00000-0  33917-4 0  9994
2 12585  97.4139 359.5562 0014255 199.6610 160.4077 15.20035252939438
Epoch (UTC): 17 January 2017 21:27:53
Eccentricity: 0.0014255
inclination: 97.4139°
perigee height: 496 km
apogee height: 515 km
right ascension of ascending node: 359.5562°
argument of perigee: 199.6610°
revolutions per day: 15.20035252
mean anomaly at epoch: 160.4077°
orbit number at epoch: 93943

The dashed part of the orbit path shows where the satellite is in the earth's shadow,  

DLR